Location: *
(6.0000°S, 32.3997°W)
Time: 01:18:52
(UTC+00:00)

Cosmos 1758 - Pass Details

Date: 01 April 2020
Orbit: 540 x 562 km, 82.5° (Epoch: 06 June)

Event Time Altitude Azimuth Distance (km) Brightness Sun altitude
Rises 20:54:09 0° 176° (S) 2,737 6.8 -10.7°
Reaches altitude 10° 20:56:22 10° 170° (S) 1,842 5.9 -11.2°
Maximum altitude 21:00:18 50° 94° (E) 719 3.5 -12.2°
Drops below altitude 10° 21:04:14 10° 19° (NNE) 1,839 5.8 -13.2°
Sets 21:06:26 0° 13° (NNE) 2,732 6.8 -13.7°
